(°C)
10°
(°C)
СВ
СВ
СВ
ССВ
ССВ
ЮЗ
ЗСЗ
(км/ч)
5-6
4-6
4-7
3-6
3-7
3-12
4-12
(мм)
0
0
0
0
0
0
0
(%)
0
0
0
0
0
0
0

Высота солнцестояния

/ -27.8°
sun-icon
UV 2
07:12
17:59
Растущая луна (155°)
17:33
04:28

METAR для Ivanka pri Dunaji (LZIB)

Время Условия Температура/
Точка росы
Ветер Видимость Погода Облачность Давление Изменить Необработанный
VFR 5°C / 4°C 150º 2kt >10km - Clouds and Visibility OK 1023 - LZIB 180200Z 15002KT CAVOK 05/04 Q1023
VFR 6°C / 4°C variable 1kt >10km - Clouds and Visibility OK 1023 - LZIB 180130Z VRB01KT CAVOK 06/04 Q1023
VFR 7°C / 5°C variable 2kt >10km - Clouds and Visibility OK 1023 - LZIB 180100Z VRB02KT CAVOK 07/05 Q1023
VFR 7°C / 5°C variable 0kt >10km - Clouds and Visibility OK 1023 - LZIB 180030Z 00000KT CAVOK 07/05 Q1023
VFR 7°C / 5°C variable 1kt >10km - Clouds and Visibility OK 1023 - LZIB 180000Z VRB01KT CAVOK 07/05 Q1023
VFR 7°C / 5°C 30º 2kt >10km - Clouds and Visibility OK 1023 - LZIB 172330Z 03002KT CAVOK 07/05 Q1023
VFR 7°C / 5°C 10º 3kt >10km - Clouds and Visibility OK 1023 - LZIB 172300Z 01003KT CAVOK 07/05 Q1023
VFR 7°C / 5°C 20º 1kt >10km - Clouds and Visibility OK 1023 - LZIB 172230Z 02001KT CAVOK 07/05 Q1023
VFR 7°C / 5°C 360º 2kt >10km - Clouds and Visibility OK 1023 - LZIB 172200Z 36002KT CAVOK 07/05 Q1023
VFR 7°C / 5°C 10º 3kt >10km - Clouds and Visibility OK 1023 - LZIB 172130Z 01003KT CAVOK 07/05 Q1023
VFR 6°C / 5°C 30º 3kt >10km - Clouds and Visibility OK 1023 - LZIB 172100Z 03003KT CAVOK 06/05 Q1023
VFR 6°C / 4°C 40º 2kt >10km - Broken Clouds 4900ft 1022 - LZIB 172030Z 04002KT 9999 BKN049 06/04 Q1022
VFR 5°C / 4°C 40º 3kt >10km - Broken Clouds 4900ft 1022 - LZIB 172000Z 04003KT 9999 BKN049 05/04 Q1022
VFR 6°C / 4°C 50º 1kt >10km - Clouds and Visibility OK 1022 - LZIB 171930Z 05001KT CAVOK 06/04 Q1022
VFR 7°C / 5°C variable 1kt >10km - Clouds and Visibility OK 1022 - LZIB 171900Z VRB01KT CAVOK 07/05 Q1022
VFR 8°C / 5°C 350º 3kt >10km - Clouds and Visibility OK 1022 - LZIB 171830Z 35003KT CAVOK 08/05 Q1022
VFR 7°C / 4°C 30º 4kt >10km - Clouds and Visibility OK 1022 No Significant change LZIB 171800Z 03004KT CAVOK 07/04 Q1022 NOSIG
VFR 8°C / 4°C 360º 2kt >10km - Clouds and Visibility OK 1022 No Significant change LZIB 171730Z 36002KT CAVOK 08/04 Q1022 NOSIG
VFR 10°C / 5°C 330º 4kt >10km - Clouds and Visibility OK 1022 No Significant change LZIB 171700Z 33004KT CAVOK 10/05 Q1022 NOSIG
VFR 11°C / 5°C 170º 2kt >10km - Clouds and Visibility OK 1021 No Significant change LZIB 171630Z 17002KT CAVOK 11/05 Q1021 NOSIG
VFR 11°C / 5°C 170º 3kt >10km - Clouds and Visibility OK 1021 No Significant change LZIB 171600Z 17003KT CAVOK 11/05 Q1021 NOSIG
VFR 12°C / 5°C 190º 3kt >10km - Clouds and Visibility OK 1021 No Significant change LZIB 171530Z 19003KT CAVOK 12/05 Q1021 NOSIG
VFR 14°C / 5°C 200º variable 160º to 220º 3kt >10km - Few Clouds 4200ft 1021 No Significant change LZIB 171500Z 20003KT 160V220 9999 FEW042 14/05 Q1021 NOSIG
VFR 14°C / 4°C 210º variable 160º to 250º 4kt >10km - Few Clouds 4200ft 1021 No Significant change LZIB 171430Z 21004KT 160V250 9999 FEW042 14/04 Q1021 NOSIG

VFR

5°C / 4°C

[Больше]
Ветер 150º 2kt
Видимость >10km
Погода -
Облачность Clouds and Visibility OK
Давление 1023
Изменить -
Необработанный LZIB 180200Z 15002KT CAVOK 05/04 Q1023

VFR

6°C / 4°C

[Больше]
Ветер variable 1kt
Видимость >10km
Погода -
Облачность Clouds and Visibility OK
Давление 1023
Изменить -
Необработанный LZIB 180130Z VRB01KT CAVOK 06/04 Q1023

VFR

7°C / 5°C

[Больше]
Ветер variable 2kt
Видимость >10km
Погода -
Облачность Clouds and Visibility OK
Давление 1023
Изменить -
Необработанный LZIB 180100Z VRB02KT CAVOK 07/05 Q1023

VFR

7°C / 5°C

[Больше]
Ветер variable 0kt
Видимость >10km
Погода -
Облачность Clouds and Visibility OK
Давление 1023
Изменить -
Необработанный LZIB 180030Z 00000KT CAVOK 07/05 Q1023

VFR

7°C / 5°C

[Больше]
Ветер variable 1kt
Видимость >10km
Погода -
Облачность Clouds and Visibility OK
Давление 1023
Изменить -
Необработанный LZIB 180000Z VRB01KT CAVOK 07/05 Q1023

VFR

7°C / 5°C

[Больше]
Ветер 30º 2kt
Видимость >10km
Погода -
Облачность Clouds and Visibility OK
Давление 1023
Изменить -
Необработанный LZIB 172330Z 03002KT CAVOK 07/05 Q1023

VFR

7°C / 5°C

[Больше]
Ветер 10º 3kt
Видимость >10km
Погода -
Облачность Clouds and Visibility OK
Давление 1023
Изменить -
Необработанный LZIB 172300Z 01003KT CAVOK 07/05 Q1023

VFR

7°C / 5°C

[Больше]
Ветер 20º 1kt
Видимость >10km
Погода -
Облачность Clouds and Visibility OK
Давление 1023
Изменить -
Необработанный LZIB 172230Z 02001KT CAVOK 07/05 Q1023

VFR

7°C / 5°C

[Больше]
Ветер 360º 2kt
Видимость >10km
Погода -
Облачность Clouds and Visibility OK
Давление 1023
Изменить -
Необработанный LZIB 172200Z 36002KT CAVOK 07/05 Q1023

VFR

7°C / 5°C

[Больше]
Ветер 10º 3kt
Видимость >10km
Погода -
Облачность Clouds and Visibility OK
Давление 1023
Изменить -
Необработанный LZIB 172130Z 01003KT CAVOK 07/05 Q1023

VFR

6°C / 5°C

[Больше]
Ветер 30º 3kt
Видимость >10km
Погода -
Облачность Clouds and Visibility OK
Давление 1023
Изменить -
Необработанный LZIB 172100Z 03003KT CAVOK 06/05 Q1023

VFR

6°C / 4°C

[Больше]
Ветер 40º 2kt
Видимость >10km
Погода -
Облачность Broken Clouds 4900ft
Давление 1022
Изменить -
Необработанный LZIB 172030Z 04002KT 9999 BKN049 06/04 Q1022

VFR

5°C / 4°C

[Больше]
Ветер 40º 3kt
Видимость >10km
Погода -
Облачность Broken Clouds 4900ft
Давление 1022
Изменить -
Необработанный LZIB 172000Z 04003KT 9999 BKN049 05/04 Q1022

VFR

6°C / 4°C

[Больше]
Ветер 50º 1kt
Видимость >10km
Погода -
Облачность Clouds and Visibility OK
Давление 1022
Изменить -
Необработанный LZIB 171930Z 05001KT CAVOK 06/04 Q1022

VFR

7°C / 5°C

[Больше]
Ветер variable 1kt
Видимость >10km
Погода -
Облачность Clouds and Visibility OK
Давление 1022
Изменить -
Необработанный LZIB 171900Z VRB01KT CAVOK 07/05 Q1022

VFR

8°C / 5°C

[Больше]
Ветер 350º 3kt
Видимость >10km
Погода -
Облачность Clouds and Visibility OK
Давление 1022
Изменить -
Необработанный LZIB 171830Z 35003KT CAVOK 08/05 Q1022

VFR

7°C / 4°C

[Больше]
Ветер 30º 4kt
Видимость >10km
Погода -
Облачность Clouds and Visibility OK
Давление 1022
Изменить No Significant change
Необработанный LZIB 171800Z 03004KT CAVOK 07/04 Q1022 NOSIG

VFR

8°C / 4°C

[Больше]
Ветер 360º 2kt
Видимость >10km
Погода -
Облачность Clouds and Visibility OK
Давление 1022
Изменить No Significant change
Необработанный LZIB 171730Z 36002KT CAVOK 08/04 Q1022 NOSIG

VFR

10°C / 5°C

[Больше]
Ветер 330º 4kt
Видимость >10km
Погода -
Облачность Clouds and Visibility OK
Давление 1022
Изменить No Significant change
Необработанный LZIB 171700Z 33004KT CAVOK 10/05 Q1022 NOSIG

VFR

11°C / 5°C

[Больше]
Ветер 170º 2kt
Видимость >10km
Погода -
Облачность Clouds and Visibility OK
Давление 1021
Изменить No Significant change
Необработанный LZIB 171630Z 17002KT CAVOK 11/05 Q1021 NOSIG

VFR

11°C / 5°C

[Больше]
Ветер 170º 3kt
Видимость >10km
Погода -
Облачность Clouds and Visibility OK
Давление 1021
Изменить No Significant change
Необработанный LZIB 171600Z 17003KT CAVOK 11/05 Q1021 NOSIG

VFR

12°C / 5°C

[Больше]
Ветер 190º 3kt
Видимость >10km
Погода -
Облачность Clouds and Visibility OK
Давление 1021
Изменить No Significant change
Необработанный LZIB 171530Z 19003KT CAVOK 12/05 Q1021 NOSIG

VFR

14°C / 5°C

[Больше]
Ветер 200º variable 160º to 220º 3kt
Видимость >10km
Погода -
Облачность Few Clouds 4200ft
Давление 1021
Изменить No Significant change
Необработанный LZIB 171500Z 20003KT 160V220 9999 FEW042 14/05 Q1021 NOSIG

VFR

14°C / 4°C

[Больше]
Ветер 210º variable 160º to 250º 4kt
Видимость >10km
Погода -
Облачность Few Clouds 4200ft
Давление 1021
Изменить No Significant change
Необработанный LZIB 171430Z 21004KT 160V250 9999 FEW042 14/04 Q1021 NOSIG

TAF для Ivanka pri Dunaji (LZIB)

From till


From till Wind variable 2kt. Visibility 10km or more. Nil Significant Cloud.
With 30% probability, Temporarly from till Visibility 2500m. Mist . Few Clouds 1000ft.
Temporarly from till Wind 340º 6kt.

Необработанный: TAF LZIB 172300Z 1800/1900 VRB02KT CAVOK PROB30 TEMPO 1800/1806 2500 BR FEW010 TEMPO 1808/1816 34006KT

Текущие спутниковые изображения и снимки дождя для Ivanka pri Dunaji, Словакия

Указатель местности находится на Ivanka pri Dunaji. [Больше]

Спутниковое изображение в реальном времени сочетает в себе видимый свет в дневное время с инфракрасным излучением в ночное время. Ночью изображение получается не темным, так как инфракрасное излучение может обнаружить разницу температур. К сожалению, низкие облака и туман трудно отличить от температуры у поверхности земли и поэтому могут быть почти незаметны ночью. Спутниковые снимки Meteosat для Европы обновляются каждые 5 минут в режиме реального времени.Снимки GOES-16/GOES-17 (Северная и Южная Америка) и Химавари (Азия) обновляются каждые 10 минут.

Вероятность осадков оценивается по данным радиолокаторов и спутников. Спутниковые данные о возможности осадков в ночное время менее точные, чем дневные данные. Оранжевыми крестами отмечаются места,где обнаруживается молния (болееЕвропа).

Копирайт 2021 EUMETSAT / meteoblue. Данные о молниях предоставляются со стороны nowcast.

Радарный и сверхкраткосрочный прогноз осадков для Ivanka pri Dunaji

Морось
Незначительные
Умеренные
Сильные
Очень Сильные
Град

Индикатор местности находится на Ivanka pri Dunaji. Анимация показывает радар осадков за последний час, а также прогноз погоды для 1h. Морось или небольшой снег могут быть невидимы для радара. Интенсивность осадков имеет цветовую кодировку - от светло-голубого до оранжевого.